Regional Weather Roundup
Issued by NWS

Home | Current Version | Previous Version | Text Only | Print | Product List | Glossary Off
Versions: 1 2 3 4 5 6 7 8 9 10 11 12 13 14 15 16 17 18 19 20 21 22 23 24 25 26 27 28 29 30 31 32 33 34 35 36 37 38 39 40 41 42 43 44 45 46 47 48 49

000
ASUS45 KSLC 260410
RWRUT

UTAH REGIONAL WEATHER ROUNDUP
NATIONAL WEATHER SERVICE SALT LAKE CITY UT
1000 PM MDT WED MAR 25 2015

UTZ001>011-023>025-260500-

NORTHERN UTAH

CITY           SKY/WX    TMP DP  RH WIND       PRES   REMARKS
BRIGHAM CITY     N/A     40  31  68 CALM      30.39R
HILL AFB         N/A     40  23  51 SE2       30.38R
LOGAN            N/A     39  29  67 E6        30.38R WCI  35
OGDEN            N/A     42  21  43 S5        30.38R
PROVO AIRPORT    N/A     45  21  39 NW14      30.39R
SALT LAKE CITY MOCLDY    45  24  43 S3        30.38R
VERNAL           N/A     41  13  31 NW5       30.29R
WENDOVER       CLOUDY    48  19  32 NW3       30.38R
HEBER CITY       N/A     36  18  48 E6        30.37R WCI  31
WEST JORDAN    CLEAR     39  19  45 SW5       30.39R

$$

UTZ012>022-026-027-260500-

SOUTHERN/CENTRAL UTAH

CITY           SKY/WX    TMP DP  RH WIND       PRES   REMARKS
BLANDING         N/A     35  13  39 N8        30.34R WCI  29
BRYCE CANYON     N/A     31  11  43 NW6       30.36R WCI  25
CEDAR CITY       N/A     41   9  26 N7        30.33S
DELTA            N/A     42   9  26 N7        30.38R
HANKSVILLE       N/A     46   9  21 N8        30.29R
MILFORD          N/A     37   7  28 N8        30.36R WCI  31
MOAB/CYNLANDS    N/A     46   8  21 CALM      30.24R
PRICE            N/A     43  11  27 NW13G21   30.30R
ST GEORGE        N/A     61  10  13 NE21G26   30.25R

$$

REGIONAL REPORTS     COLORADO/ARIZONA

CITY           SKY/WX    TMP DP  RH WIND       PRES   REMARKS
CRAIG, CO        N/A     29  21  72 W3        30.30R
GRAND JUNCTION   N/A     43  13  29 SW3       30.27R
RIFLE            N/A     33  19  56 S3        30.31R
MONTROSE         N/A     37  16  42 SE3       30.32R
CORTEZ           N/A     41   8  25 NW7       30.25R
PAGE, AZ         N/A     57   8  14 CALM      30.23R
GRAND CANYON     N/A     40  20  44 NE6       30.29R
KINGMAN          N/A     59  21  23 NE8       30.18R
FLAGSTAFF        N/A     40  20  44 CALM      30.28R

$$

REGIONAL REPORTS    NEVADA/IDAHO/WYOMING

CITY           SKY/WX    TMP DP  RH WIND       PRES   REMARKS
LAS VEGAS, NV    N/A     71  25  17 CALM      30.14R
ELY              N/A     40  16  37 NW7       30.37R
ELKO             N/A     47  28  47 CALM      30.37R
POCATELLO, ID    N/A     41  22  46 S9        30.37R
BURLEY           N/A     44  30  57 SW13      30.36R
EVANSTON, WY     N/A     28  19  69 SW8       30.37R WCI  20
ROCK SPRINGS     N/A     33  16  49 W14       30.31R WCI  23

$$


USA.gov is the U.S. government's official web portal to all federal, state and local government web resources and services.